Tracking 28790 objects as of 19-Apr-2024
HD Live streaming from Space Station
objects crossing your sky now

DMSP 5D-2 F13 DEB

Track DMSP 5D-2 F13 DEB now!
10-day predictions


NORAD ID: 42283
Int'l Code: 1995-015GZ
Perigee: 640.4 km
Apogee: 717.7 km
Inclination: 98.6 °
Period: 98.2 minutes
Semi major axis: 7050 km
RCS: Unknown
Launch date: March 24, 1995
Source: United States (US)
Launch site: AIR FORCE WESTERN TEST RANGE (AFWTR)

Note: This is SATELLITE DEBRIS
Your satellite tracking list
Your tracking list is empty




NASA's NSSDC Master Catalog

Two Line Element Set (TLE):
1 42283U 95015GZ  24108.14563750  .00092532  00000-0  16092-1 0  9995
2 42283  98.6412 220.5654 0054812 109.7933 250.9191 14.66600656472007
Source of the keplerian elements: AFSPC